QPF
0.09 0.13 0.14 0.16 0.16 0.17 0.17 0.18 0.17 0.17 0.14 0.13 0.14 0.14 0.14 0.13 0.13 0.14 0.15 0.16 0.18 0.19 0.18 0.18 0.18 0.20 0.20 0.16 0.14 0.13 0.13 0.13 0.13 0.12 0.08 0.05 0.04 0.03 0.02 0.02 0.02 0.03 0.03
0.05 0.09 0.13 0.12 0.13 0.12 0.11 0.14 0.13 0.14 0.12 0.11 0.12 0.12 0.12 0.11 0.11 0.12 0.13 0.14 0.13 0.14 0.16 0.15 0.13 0.15 0.16 0.15 0.15 0.11 0.10 0.11 0.12 0.12 0.11 0.08 0.06 0.05 0.05 0.04 0.03 0.05 0.05
0.03 0.04 0.08 0.09 0.09 0.08 0.08 0.09 0.09 0.10 0.09 0.09 0.08 0.08 0.09 0.10 0.11 0.11 0.10 0.14 0.14 0.13 0.14 0.14 0.12 0.11 0.11 0.10 0.10 0.09 0.08 0.08 0.10 0.10 0.10 0.08 0.07 0.06 0.07 0.06 0.06 0.07 0.05
0.02 0.02 0.04 0.05 0.05 0.05 0.05 0.05 0.05 0.05 0.05 0.06 0.07 0.07 0.07 0.07 0.07 0.08 0.09 0.10 0.11 0.12 0.12 0.11 0.12 0.10 0.10 0.09 0.08 0.09 0.09 0.09 0.09 0.09 0.09 0.07 0.06 0.07 0.09 0.11 0.12 0.13 0.10
0.01 0.02 0.03 0.04 0.03 0.02 0.02 0.03 0.02 0.02 0.02 0.03 0.03 0.03 0.04 0.04 0.03 0.04 0.07 0.09 0.10 0.10 0.12 0.13 0.14 0.12 0.11 0.09 0.08 0.09 0.10 0.09 0.09 0.08 0.07 0.07 0.07 0.09 0.09 0.11 0.13 0.13 0.11
0.00 0.01 0.01 0.01 0.02 0.02 0.02 0.02 0.01 0.02 0.02 0.02 0.01 0.02 0.01 0.01 0.01 0.02 0.04 0.08 0.10 0.09 0.10 0.12 0.14 0.11 0.10 0.10 0.09 0.09 0.09 0.10 0.10 0.09 0.07 0.07 0.05 0.05 0.07 0.11 0.12 0.08 0.06
0.00 0.00 0.00 0.00 0.01 0.01 0.01 0.02 0.03 0.02 0.02 0.01 0.01 0.01 0.01 0.01 0.02 0.02 0.03 0.07 0.09 0.10 0.10 0.10 0.10 0.10 0.10 0.10 0.09 0.07 0.07 0.08 0.08 0.08 0.08 0.07 0.05 0.04 0.06 0.09 0.11 0.10 0.06
0.00 0.00 0.00 0.00 0.00 0.01 0.01 0.01 0.02 0.02 0.02 0.01 0.01 0.02 0.01 0.02 0.03 0.03 0.05 0.09 0.09 0.10 0.09 0.09 0.09 0.12 0.09 0.09 0.10 0.11 0.08 0.07 0.07 0.06 0.08 0.06 0.03 0.03 0.05 0.06 0.06 0.05 0.06
0.00 0.00 0.00 0.00 0.00 0.00 0.00 0.00 0.00 0.01 0.01 0.01 0.01 0.02 0.02 0.03 0.03 0.03 0.07 0.12 0.12 0.14 0.12 0.10 0.12 0.13 0.09 0.10 0.12 0.13 0.10 0.06 0.05 0.05 0.05 0.04 0.02 0.02 0.03 0.05 0.05 0.05 0.04
0.00 0.00 0.00 0.00 0.00 0.00 0.00 0.00 0.01 0.01 0.01 0.01 0.01 0.01 0.02 0.03 0.03 0.04 0.09 0.14 0.15 0.16 0.18 0.15 0.15 0.13 0.08 0.10 0.11 0.13 0.11 0.05 0.03 0.03 0.02 0.02 0.01 0.01 0.03 0.06 0.09 0.08 0.05
0.00 0.00 0.00 0.00 0.00 0.00 0.00 0.00 0.01 0.01 0.02 0.02 0.02 0.02 0.02 0.03 0.04 0.05 0.11 0.16 0.13 0.16 0.18 0.16 0.09 0.09 0.08 0.09 0.10 0.11 0.14 0.09 0.07 0.06 0.05 0.03 0.02 0.01 0.01 0.02 0.04 0.06 0.06
0.00 0.00 0.00 0.00 0.00 0.00 0.00 0.01 0.01 0.02 0.02 0.03 0.03 0.03 0.03 0.02 0.03 0.05 0.08 0.12 0.13 0.14 0.14 0.09 0.06 0.06 0.06 0.07 0.08 0.07 0.12 0.14 0.11 0.09 0.08 0.05 0.03 0.02 0.01 0.01 0.01 0.01 0.02
0.00 0.00 0.00 0.00 0.00 0.00 0.00 0.01 0.00 0.01 0.01 0.01 0.02 0.03 0.04 0.03 0.02 0.03 0.04 0.07 0.10 0.12 0.11 0.07 0.05 0.04 0.04 0.04 0.06 0.05 0.08 0.14 0.13 0.11 0.07 0.04 0.02 0.02 0.01 0.01 0.00 0.00 0.00
0.00 0.00 0.00 0.00 0.00 0.00 0.00 0.00 0.00 0.00 0.01 0.01 0.01 0.02 0.03 0.03 0.02 0.03 0.04 0.06 0.06 0.06 0.05 0.04 0.04 0.04 0.04 0.03 0.03 0.06 0.08 0.10 0.10 0.09 0.05 0.02 0.01 0.01 0.01 0.01 0.01 0.00 0.00
0.00 0.00 0.00 0.00 0.00 0.00 0.00 0.00 0.00 0.00 0.00 0.00 0.00 0.01 0.01 0.01 0.01 0.02 0.04 0.05 0.04 0.02 0.02 0.03 0.04 0.05 0.05 0.05 0.06 0.07 0.05 0.04 0.04 0.05 0.04 0.03 0.01 0.01 0.01 0.01 0.01 0.00 0.00
0.00 0.00 0.00 0.00 0.00 0.00 0.00 0.00 0.00 0.00 0.00 0.00 0.00 0.00 0.00 0.00 0.00 0.00 0.01 0.01 0.02 0.03 0.06 0.05 0.05 0.05 0.05 0.06 0.08 0.06 0.04 0.03 0.03 0.04 0.04 0.04 0.03 0.01 0.01 0.00 0.01 0.00 0.00
0.00 0.00 0.00 0.00 0.00 0.00 0.00 0.00 0.00 0.00 0.00 0.00 0.00 0.00 0.00 0.00 0.00 0.00 0.00 0.00 0.01 0.03 0.08 0.05 0.04 0.04 0.05 0.06 0.06 0.04 0.02 0.01 0.02 0.02 0.02 0.02 0.03 0.02 0.01 0.01 0.01 0.00 0.00
0.00 0.00 0.00 0.00 0.00 0.00 0.00 0.00 0.00 0.00 0.00 0.00 0.00 0.00 0.00 0.00 0.00 0.00 0.00 0.01 0.02 0.03 0.04 0.03 0.03 0.03 0.03 0.02 0.01 0.01 0.00 0.00 0.01 0.01 0.01 0.01 0.02 0.01 0.00 0.00 0.00 0.00 0.00
0.00 0.00 0.00 0.00 0.00 0.00 0.00 0.00 0.00 0.00 0.00 0.00 0.00 0.00 0.00 0.00 0.00 0.00 0.00 0.02 0.03 0.02 0.02 0.01 0.01 0.01 0.00 0.00 0.00 0.00 0.00 0.00 0.01 0.01 0.01 0.01 0.01 0.01 0.01 0.00 0.00 0.00 0.00
0.00 0.00 0.00 0.00 0.00 0.00 0.00 0.00 0.00 0.00 0.00 0.00 0.00 0.00 0.00 0.00 0.00 0.00 0.00 0.01 0.01 0.01 0.00 0.00 0.00 0.00 0.00 0.00 0.00 0.00 0.00 0.00 0.00 0.00 0.00 0.00 0.00 0.00 0.00 0.00 0.00 0.00 0.00
0.00 0.00 0.00 0.00 0.00 0.00 0.00 0.00 0.00 0.00 0.00 0.00 0.00 0.00 0.00 0.00 0.00 0.00 0.00 0.00 0.00 0.00 0.00 0.00 0.00 0.00 0.00 0.00 0.00 0.00 0.00 0.00 0.00 0.00 0.00 0.00 0.00 0.00 0.00 0.00 0.00 0.00 0.00
0.00 0.00 0.00 0.00 0.00 0.00 0.00 0.00 0.00 0.00 0.00 0.00 0.00 0.00 0.00 0.00 0.00 0.00 0.00 0.00 0.00 0.00 0.00 0.00 0.00 0.00 0.00 0.00 0.00 0.00 0.00 0.00 0.00 0.00 0.00 0.00 0.00 0.00 0.00 0.00 0.00 0.00 0.00
0.00 0.00 0.00 0.00 0.00 0.00 0.00 0.00 0.00 0.00 0.00 0.00 0.00 0.00 0.00 0.00 0.00 0.00 0.00 0.00 0.00 0.00 0.00 0.00 0.00 0.00 0.00 0.00 0.00 0.00 0.00 0.00 0.00 0.00 0.00 0.00 0.00 0.00 0.00 0.00 0.00 0.00 0.00
0.00 0.00 0.00 0.00 0.00 0.00 0.00 0.00 0.00 0.00 0.00 0.00 0.00 0.00 0.00 0.00 0.00 0.00 0.00 0.00 0.00 0.00 0.00 0.00 0.00 0.00 0.00 0.00 0.00 0.00 0.00 0.00 0.00 0.00 0.00 0.00 0.00 0.00 0.00 0.00 0.00 0.00 0.00
0.00 0.00 0.00 0.00 0.00 0.00 0.00 0.00 0.00 0.00 0.00 0.00 0.00 0.00 0.00 0.00 0.00 0.00 0.00 0.00 0.00 0.00 0.00 0.00 0.00 0.00 0.00 0.00 0.00 0.00 0.00 0.00 0.00 0.00 0.00 0.00 0.00 0.00 0.00 0.00 0.00 0.00 0.00
0.00 0.00 0.00 0.00 0.00 0.00 0.00 0.00 0.00 0.00 0.00 0.00 0.00 0.00 0.00 0.00 0.00 0.00 0.00 0.00 0.00 0.00 0.00 0.00 0.00 0.00 0.00 0.00 0.00 0.00 0.00 0.00 0.00 0.00 0.00 0.00 0.00 0.00 0.00 0.00 0.00 0.00 0.00
MSLP
1014.73 1014.39 1014.03 1013.65 1013.25 1012.84 1012.42 1012.02 1011.65 1011.33 1011.06 1010.84 1010.67 1010.55 1010.46 1010.39 1010.35 1010.33 1010.35 1010.41 1010.55 1010.76 1011.07 1011.47 1011.97 1012.54 1013.18 1013.84 1014.50 1015.13 1015.71 1016.21 1016.61 1016.90 1017.08 1017.15 1017.15 1017.09 1017.02 1016.97 1016.99 1017.11 1017.33
1015.01 1014.72 1014.40 1014.06 1013.71 1013.33 1012.96 1012.59 1012.25 1011.95 1011.69 1011.47 1011.30 1011.16 1011.04 1010.95 1010.87 1010.81 1010.78 1010.79 1010.85 1010.99 1011.21 1011.51 1011.91 1012.39 1012.94 1013.55 1014.18 1014.80 1015.40 1015.94 1016.39 1016.74 1016.98 1017.11 1017.15 1017.14 1017.10 1017.09 1017.13 1017.27 1017.53
1015.30 1015.05 1014.79 1014.50 1014.19 1013.86 1013.53 1013.21 1012.90 1012.62 1012.37 1012.16 1011.98 1011.83 1011.70 1011.59 1011.49 1011.41 1011.35 1011.32 1011.33 1011.40 1011.53 1011.74 1012.03 1012.40 1012.84 1013.35 1013.91 1014.48 1015.05 1015.59 1016.07 1016.46 1016.76 1016.96 1017.08 1017.15 1017.18 1017.24 1017.36 1017.56 1017.87
1015.56 1015.37 1015.16 1014.93 1014.67 1014.39 1014.11 1013.82 1013.54 1013.28 1013.04 1012.82 1012.64 1012.47 1012.33 1012.21 1012.10 1012.00 1011.93 1011.88 1011.86 1011.87 1011.94 1012.07 1012.26 1012.52 1012.85 1013.25 1013.71 1014.20 1014.72 1015.23 1015.70 1016.12 1016.47 1016.74 1016.95 1017.10 1017.24 1017.40 1017.61 1017.90 1018.28
1015.77 1015.65 1015.50 1015.32 1015.11 1014.88 1014.64 1014.38 1014.12 1013.87 1013.63 1013.41 1013.21 1013.03 1012.87 1012.72 1012.60 1012.50 1012.42 1012.36 1012.33 1012.32 1012.35 1012.43 1012.54 1012.72 1012.95 1013.24 1013.60 1014.00 1014.44 1014.90 1015.35 1015.77 1016.15 1016.48 1016.76 1017.02 1017.26 1017.53 1017.84 1018.23 1018.69
1015.92 1015.86 1015.78 1015.66 1015.50 1015.31 1015.10 1014.86 1014.62 1014.37 1014.12 1013.89 1013.66 1013.45 1013.27 1013.11 1012.97 1012.86 1012.78 1012.73 1012.70 1012.69 1012.71 1012.76 1012.84 1012.96 1013.12 1013.33 1013.60 1013.91 1014.27 1014.67 1015.07 1015.47 1015.87 1016.23 1016.58 1016.91 1017.24 1017.61 1018.01 1018.48 1019.02
1016.03 1016.04 1016.00 1015.93 1015.82 1015.66 1015.47 1015.26 1015.03 1014.78 1014.52 1014.26 1014.01 1013.77 1013.55 1013.36 1013.21 1013.09 1013.01 1012.97 1012.95 1012.97 1013.01 1013.06 1013.14 1013.24 1013.36 1013.52 1013.72 1013.96 1014.25 1014.57 1014.92 1015.30 1015.67 1016.05 1016.43 1016.81 1017.21 1017.63 1018.11 1018.63 1019.22
1016.14 1016.19 1016.19 1016.16 1016.07 1015.95 1015.78 1015.58 1015.36 1015.11 1014.84 1014.57 1014.29 1014.02 1013.77 1013.55 1013.38 1013.25 1013.16 1013.13 1013.14 1013.19 1013.26 1013.35 1013.45 1013.56 1013.67 1013.81 1013.97 1014.16 1014.39 1014.65 1014.95 1015.27 1015.61 1015.98 1016.36 1016.75 1017.18 1017.63 1018.13 1018.68 1019.28
1016.27 1016.34 1016.37 1016.36 1016.30 1016.19 1016.04 1015.85 1015.64 1015.40 1015.13 1014.85 1014.56 1014.27 1013.99 1013.75 1013.55 1013.40 1013.32 1013.30 1013.33 1013.41 1013.52 1013.65 1013.78 1013.92 1014.06 1014.20 1014.34 1014.50 1014.69 1014.90 1015.14 1015.41 1015.72 1016.05 1016.41 1016.79 1017.20 1017.65 1018.14 1018.67 1019.25
1016.43 1016.52 1016.56 1016.55 1016.50 1016.40 1016.27 1016.10 1015.91 1015.68 1015.43 1015.15 1014.86 1014.56 1014.28 1014.02 1013.80 1013.64 1013.55 1013.53 1013.57 1013.68 1013.82 1013.99 1014.16 1014.34 1014.50 1014.66 1014.80 1014.95 1015.11 1015.28 1015.48 1015.71 1015.98 1016.27 1016.59 1016.95 1017.33 1017.74 1018.19 1018.68 1019.21
1016.61 1016.70 1016.74 1016.73 1016.69 1016.60 1016.49 1016.35 1016.18 1015.99 1015.76 1015.51 1015.23 1014.95 1014.66 1014.39 1014.17 1014.00 1013.90 1013.87 1013.92 1014.03 1014.19 1014.39 1014.59 1014.79 1014.98 1015.15 1015.31 1015.45 1015.60 1015.75 1015.93 1016.14 1016.37 1016.63 1016.92 1017.24 1017.58 1017.95 1018.34 1018.77 1019.23
1016.77 1016.85 1016.89 1016.89 1016.85 1016.79 1016.71 1016.60 1016.47 1016.32 1016.14 1015.93 1015.68 1015.42 1015.15 1014.89 1014.66 1014.48 1014.36 1014.33 1014.36 1014.47 1014.63 1014.83 1015.04 1015.26 1015.46 1015.64 1015.81 1015.96 1016.11 1016.26 1016.43 1016.63 1016.84 1017.09 1017.36 1017.64 1017.95 1018.27 1018.61 1018.97 1019.36
1016.84 1016.93 1016.97 1016.99 1016.97 1016.94 1016.90 1016.84 1016.77 1016.67 1016.55 1016.39 1016.19 1015.96 1015.71 1015.47 1015.24 1015.06 1014.93 1014.87 1014.89 1014.97 1015.11 1015.29 1015.50 1015.70 1015.91 1016.09 1016.26 1016.42 1016.58 1016.75 1016.92 1017.12 1017.35 1017.59 1017.86 1018.13 1018.42 1018.71 1019.00 1019.31 1019.62
1016.78 1016.88 1016.94 1016.99 1017.01 1017.03 1017.04 1017.05 1017.04 1017.01 1016.94 1016.84 1016.69 1016.51 1016.30 1016.08 1015.86 1015.67 1015.54 1015.45 1015.44 1015.49 1015.60 1015.75 1015.92 1016.11 1016.30 1016.47 1016.64 1016.81 1016.98 1017.16 1017.36 1017.58 1017.83 1018.09 1018.37 1018.65 1018.93 1019.20 1019.47 1019.73 1019.99
1016.55 1016.67 1016.77 1016.86 1016.94 1017.02 1017.10 1017.17 1017.23 1017.27 1017.28 1017.24 1017.15 1017.02 1016.84 1016.65 1016.45 1016.27 1016.12 1016.02 1015.98 1015.99 1016.06 1016.16 1016.30 1016.46 1016.62 1016.78 1016.95 1017.11 1017.30 1017.49 1017.72 1017.97 1018.24 1018.53 1018.83 1019.13 1019.42 1019.69 1019.94 1020.18 1020.40
1016.14 1016.30 1016.44 1016.59 1016.73 1016.88 1017.03 1017.18 1017.31 1017.42 1017.49 1017.51 1017.48 1017.40 1017.27 1017.11 1016.94 1016.77 1016.62 1016.51 1016.45 1016.43 1016.46 1016.53 1016.63 1016.75 1016.88 1017.02 1017.18 1017.34 1017.53 1017.74 1017.98 1018.25 1018.55 1018.87 1019.19 1019.51 1019.82 1020.10 1020.35 1020.58 1020.79
1015.62 1015.80 1015.99 1016.19 1016.39 1016.61 1016.83 1017.04 1017.24 1017.41 1017.54 1017.62 1017.64 1017.61 1017.54 1017.42 1017.28 1017.14 1017.01 1016.90 1016.83 1016.80 1016.80 1016.84 1016.91 1017.00 1017.11 1017.23 1017.37 1017.53 1017.71 1017.92 1018.17 1018.46 1018.77 1019.10 1019.44 1019.77 1020.09 1020.38 1020.64 1020.86 1021.07
1015.04 1015.24 1015.46 1015.70 1015.95 1016.21 1016.47 1016.74 1016.99 1017.21 1017.39 1017.52 1017.60 1017.63 1017.60 1017.54 1017.45 1017.35 1017.25 1017.17 1017.11 1017.08 1017.08 1017.11 1017.16 1017.23 1017.32 1017.43 1017.55 1017.70 1017.87 1018.08 1018.32 1018.59 1018.90 1019.22 1019.56 1019.89 1020.21 1020.50 1020.77 1021.00 1021.21
1014.49 1014.69 1014.91 1015.16 1015.42 1015.71 1016.00 1016.29 1016.57 1016.82 1017.04 1017.22 1017.35 1017.43 1017.47 1017.47 1017.44 1017.40 1017.35 1017.31 1017.29 1017.29 1017.31 1017.34 1017.39 1017.46 1017.54 1017.63 1017.74 1017.88 1018.03 1018.22 1018.44 1018.69 1018.97 1019.27 1019.58 1019.90 1020.20 1020.49 1020.75 1020.99 1021.20
1014.02 1014.19 1014.40 1014.63 1014.88 1015.15 1015.43 1015.72 1016.01 1016.28 1016.52 1016.74 1016.91 1017.05 1017.15 1017.22 1017.27 1017.29 1017.32 1017.34 1017.37 1017.41 1017.46 1017.52 1017.59 1017.67 1017.75 1017.85 1017.95 1018.07 1018.21 1018.37 1018.56 1018.77 1019.01 1019.27 1019.54 1019.82 1020.10 1020.37 1020.62 1020.85 1021.07
1013.65 1013.80 1013.96 1014.15 1014.36 1014.59 1014.83 1015.09 1015.36 1015.63 1015.88 1016.12 1016.33 1016.52 1016.69 1016.83 1016.95 1017.06 1017.15 1017.25 1017.34 1017.43 1017.53 1017.63 1017.73 1017.83 1017.93 1018.04 1018.14 1018.25 1018.38 1018.51 1018.67 1018.84 1019.04 1019.25 1019.47 1019.71 1019.95 1020.19 1020.42 1020.65 1020.87
1013.38 1013.49 1013.61 1013.74 1013.89 1014.06 1014.25 1014.46 1014.69 1014.93 1015.18 1015.43 1015.67 1015.90 1016.12 1016.33 1016.52 1016.70 1016.87 1017.04 1017.20 1017.35 1017.50 1017.64 1017.78 1017.92 1018.04 1018.17 1018.28 1018.40 1018.52 1018.64 1018.77 1018.91 1019.06 1019.22 1019.40 1019.59 1019.79 1019.99 1020.21 1020.42 1020.65
1013.14 1013.24 1013.32 1013.40 1013.49 1013.60 1013.72 1013.87 1014.05 1014.26 1014.48 1014.72 1014.98 1015.24 1015.50 1015.76 1016.01 1016.25 1016.48 1016.71 1016.92 1017.13 1017.33 1017.51 1017.70 1017.87 1018.03 1018.18 1018.33 1018.46 1018.59 1018.71 1018.82 1018.94 1019.06 1019.19 1019.33 1019.48 1019.64 1019.82 1020.01 1020.21 1020.42
1012.88 1012.98 1013.06 1013.11 1013.15 1013.20 1013.27 1013.36 1013.49 1013.65 1013.85 1014.07 1014.33 1014.60 1014.88 1015.16 1015.45 1015.73 1016.00 1016.26 1016.51 1016.76 1017.00 1017.22 1017.44 1017.66 1017.86 1018.05 1018.23 1018.39 1018.55 1018.68 1018.81 1018.92 1019.03 1019.14 1019.26 1019.38 1019.51 1019.66 1019.83 1020.02 1020.22
1012.51 1012.66 1012.75 1012.80 1012.83 1012.85 1012.88 1012.93 1013.02 1013.14 1013.30 1013.50 1013.73 1013.99 1014.27 1014.56 1014.85 1015.14 1015.43 1015.71 1015.98 1016.24 1016.50 1016.76 1017.02 1017.27 1017.51 1017.75 1017.98 1018.19 1018.38 1018.55 1018.70 1018.83 1018.95 1019.06 1019.16 1019.27 1019.39 1019.52 1019.68 1019.84 1020.03
1011.99 1012.20 1012.34 1012.43 1012.47 1012.50 1012.51 1012.55 1012.61 1012.70 1012.83 1013.00 1013.21 1013.44 1013.69 1013.96 1014.23 1014.51 1014.78 1015.05 1015.32 1015.59 1015.87 1016.14 1016.43 1016.71 1017.00 1017.29 1017.56 1017.83 1018.07 1018.29 1018.48 1018.65 1018.79 1018.92 1019.03 1019.14 1019.25 1019.37 1019.51 1019.66 1019.83
Thickness
5642 5643 5643 5643 5645 5647 5648 5651 5654 5658 5663 5668 5671 5675 5679 5684 5688 5691 5693 5696 5698 5699 5702 5702 5702 5703 5702 5703 5702 5701 5700 5698 5694 5696 5700 5703 5703 5703 5702 5703 5702 5700 5697
5643 5643 5643 5643 5644 5644 5646 5648 5650 5654 5657 5661 5664 5666 5670 5674 5678 5681 5684 5687 5689 5691 5693 5694 5695 5696 5695 5695 5694 5693 5693 5693 5691 5688 5691 5693 5694 5695 5695 5695 5695 5692 5689
5645 5644 5643 5642 5642 5642 5643 5645 5647 5649 5651 5654 5656 5658 5661 5664 5668 5672 5675 5678 5681 5683 5685 5686 5687 5687 5686 5687 5686 5686 5686 5687 5686 5684 5683 5685 5686 5687 5686 5686 5686 5684 5681
5647 5644 5642 5642 5641 5641 5641 5642 5643 5644 5645 5646 5648 5650 5652 5655 5658 5662 5665 5669 5671 5674 5677 5678 5679 5679 5679 5679 5679 5679 5679 5679 5679 5677 5676 5677 5677 5678 5678 5676 5674 5675 5673
5648 5645 5643 5642 5641 5640 5639 5638 5638 5638 5639 5639 5641 5642 5644 5646 5648 5651 5655 5659 5662 5664 5667 5668 5670 5672 5672 5673 5673 5673 5673 5672 5671 5670 5669 5669 5669 5669 5669 5670 5667 5666 5665
5650 5646 5644 5642 5640 5639 5637 5635 5634 5633 5633 5633 5633 5634 5635 5637 5640 5643 5647 5650 5653 5655 5657 5659 5661 5662 5664 5665 5667 5669 5669 5667 5665 5665 5664 5663 5663 5665 5666 5665 5662 5659 5656
5651 5648 5645 5642 5639 5636 5635 5632 5630 5628 5627 5627 5627 5627 5628 5629 5633 5637 5640 5643 5645 5647 5649 5650 5653 5655 5656 5657 5658 5661 5662 5663 5665 5664 5661 5660 5661 5662 5663 5660 5659 5657 5654
5652 5649 5645 5641 5638 5635 5632 5629 5626 5625 5623 5621 5621 5621 5622 5623 5626 5630 5633 5636 5638 5639 5641 5643 5644 5645 5648 5650 5651 5652 5653 5655 5660 5660 5659 5659 5660 5661 5661 5660 5658 5654 5652
5653 5649 5645 5641 5637 5633 5630 5627 5624 5622 5619 5618 5617 5616 5616 5617 5619 5623 5626 5628 5629 5630 5632 5634 5636 5637 5641 5644 5644 5644 5645 5646 5650 5652 5653 5653 5655 5657 5658 5656 5653 5649 5644
5654 5651 5647 5642 5637 5632 5629 5626 5623 5620 5617 5615 5613 5612 5611 5611 5613 5616 5619 5620 5621 5622 5624 5625 5628 5630 5634 5637 5638 5639 5638 5639 5642 5643 5646 5648 5650 5652 5653 5653 5651 5647 5643
5657 5653 5648 5644 5639 5633 5629 5626 5623 5620 5617 5614 5611 5610 5609 5608 5609 5611 5613 5614 5615 5616 5617 5618 5621 5625 5629 5632 5634 5635 5635 5637 5639 5640 5641 5643 5645 5646 5648 5649 5649 5648 5644
5660 5655 5650 5646 5642 5637 5631 5627 5624 5620 5616 5613 5611 5609 5607 5606 5605 5606 5608 5609 5611 5611 5611 5613 5616 5620 5624 5627 5629 5631 5634 5635 5636 5636 5636 5637 5638 5639 5641 5643 5644 5645 5644
5663 5658 5654 5650 5644 5638 5633 5628 5624 5620 5616 5613 5610 5608 5606 5604 5603 5603 5604 5605 5606 5607 5608 5610 5613 5616 5619 5622 5625 5628 5631 5632 5632 5631 5631 5632 5634 5635 5637 5638 5638 5639 5638
5667 5662 5658 5653 5647 5641 5635 5630 5625 5620 5615 5613 5610 5607 5606 5604 5601 5600 5601 5602 5604 5605 5606 5608 5611 5614 5617 5620 5623 5625 5628 5629 5629 5629 5629 5630 5631 5632 5632 5633 5632 5631 5629
5672 5668 5662 5656 5650 5644 5638 5632 5627 5621 5616 5613 5610 5608 5605 5602 5600 5600 5601 5602 5603 5604 5606 5609 5611 5613 5615 5617 5620 5623 5625 5627 5627 5628 5628 5627 5628 5628 5629 5630 5630 5629 5626
5677 5672 5666 5660 5655 5650 5644 5636 5630 5626 5621 5617 5614 5610 5608 5605 5604 5604 5604 5605 5606 5607 5609 5609 5610 5611 5613 5615 5618 5620 5622 5624 5625 5626 5627 5626 5626 5627 5627 5629 5629 5627 5624
5680 5676 5670 5665 5660 5655 5651 5645 5637 5630 5626 5622 5619 5616 5613 5611 5610 5609 5609 5609 5611 5612 5611 5611 5611 5612 5614 5616 5618 5619 5620 5623 5625 5626 5626 5627 5627 5627 5627 5627 5627 5626 5624
5684 5679 5675 5669 5665 5661 5657 5653 5648 5642 5635 5630 5625 5622 5620 5618 5616 5615 5615 5614 5615 5616 5615 5614 5614 5616 5617 5617 5619 5620 5621 5623 5625 5626 5627 5627 5628 5628 5627 5626 5626 5625 5623
5687 5683 5678 5674 5670 5667 5663 5659 5655 5651 5646 5641 5634 5629 5627 5624 5623 5622 5622 5620 5620 5619 5619 5618 5619 5619 5620 5620 5621 5622 5623 5624 5626 5626 5627 5628 5628 5628 5627 5626 5624 5624 5623
5688 5685 5681 5677 5674 5671 5668 5664 5661 5657 5653 5649 5644 5639 5635 5631 5629 5628 5627 5627 5626 5624 5623 5623 5623 5623 5623 5623 5624 5625 5625 5626 5627 5627 5628 5628 5629 5629 5628 5626 5625 5624 5623
5691 5687 5683 5679 5676 5674 5673 5670 5667 5663 5659 5656 5652 5647 5643 5640 5638 5636 5634 5633 5631 5630 5629 5628 5627 5627 5627 5627 5627 5628 5629 5629 5629 5629 5629 5629 5629 5628 5628 5628 5627 5625 5624
5693 5690 5685 5682 5679 5678 5676 5675 5672 5669 5665 5661 5656 5652 5650 5646 5645 5643 5641 5639 5638 5636 5635 5633 5632 5631 5631 5630 5631 5631 5632 5632 5632 5632 5631 5630 5630 5629 5629 5628 5626 5625 5624
5693 5691 5689 5686 5684 5681 5678 5676 5674 5672 5670 5668 5664 5658 5654 5652 5651 5649 5648 5646 5644 5642 5640 5638 5637 5636 5635 5634 5634 5634 5634 5634 5635 5634 5633 5632 5631 5630 5629 5627 5626 5625 5623
5692 5690 5689 5687 5685 5683 5680 5678 5677 5676 5674 5672 5670 5666 5662 5659 5658 5656 5654 5652 5649 5647 5645 5643 5641 5640 5639 5638 5637 5636 5636 5636 5636 5635 5634 5633 5631 5630 5629 5627 5626 5625 5622
5691 5689 5688 5686 5685 5683 5681 5680 5679 5678 5677 5675 5673 5671 5669 5666 5663 5661 5659 5656 5654 5651 5649 5647 5645 5643 5643 5641 5639 5638 5636 5636 5635 5634 5633 5632 5631 5630 5628 5627 5624 5623 5621
5689 5688 5687 5685 5684 5683 5681 5680 5679 5679 5678 5677 5676 5674 5672 5670 5667 5665 5662 5659 5656 5654 5652 5650 5648 5646 5644 5643 5641 5639 5637 5635 5634 5632 5631 5629 5628 5627 5626 5624 5623 5620 5619